[[{"header":{"parameterUnit":"m.s-1","parameterCategory":1,"la1":30.2991,"la2":30.254,"lo1":-89.0895,"lo2":-89.0444,"dy":0.0017,"dx":0.0017,"nx":28,"ny":28,"refTime":"2024-02-10T03:00:00:Z","depth":0,"parameterNumber":2,"parameterNumberName":"U-component_of_WINDS"},"data":[0,0,0,0,0,0,0,0,0,0,0,0,0,0,0,0,0,0,0,0,0,0,0,0,0,0,0,0,0,0,0,0,0,0,0,0,0,0,0,0,0,0,0,0,0,0,0,0,0,0,0,0,0,0,0,0,0,0,-2.6803,-2.6803,0,-2.6848,-2.6848,-2.6849,-2.6847,-2.6846,-2.6846,-2.6845,-2.6892,-2.6894,-2.6895,0,0,0,0,0,0,0,0,0,0,0,0,0,-2.6717,-2.6719,-2.6803,-2.6803,-2.6804,-2.6848,-2.6848,-2.6849,-2.6847,-2.6846,-2.6845,-2.6845,-2.6891,-2.6893,-2.6896,0,0,0,0,0,0,0,0,0,0,0,0,0,-2.6757,-2.6719,-2.6803,-2.6808,-2.6809,-2.6848,-2.6848,-2.6849,-2.6847,-2.6846,-2.6845,-2.6844,-2.6891,-2.6893,-2.6896,-2.6932,0,0,-2.6904,-2.6906,0,0,0,0,0,0,0,0,-2.6755,-2.6761,-2.6807,-2.6808,-2.6809,-2.6841,-2.6835,-2.6877,-2.6847,-2.6833,-2.6845,-2.6844,-2.6876,-2.688,-2.689,-2.6934,-2.6936,-2.6905,-2.6906,-2.6907,-2.6908,0,0,0,0,0,0,0,-2.6752,-2.6759,-2.6821,-2.6808,-2.6809,-2.6809,-2.6814,-2.6843,-2.6859,-2.6834,-2.6834,-2.6839,-2.6876,-2.6888,-2.6891,-2.6937,-2.6905,-2.6907,-2.6909,-2.691,-2.7014,-2.7015,0,0,0,0,0,0,-2.6748,-2.6756,-2.6819,-2.6822,-2.6779,-2.6811,-2.6817,-2.6832,-2.6859,-2.6862,-2.684,-2.6839,-2.6883,-2.6888,-2.6893,-2.6936,-2.6907,-2.691,-2.6912,-2.7012,-2.7014,-2.7015,0,0,0,0,0,0,-2.6746,-2.6754,-2.6817,-2.6789,-2.6797,-2.6814,-2.6831,-2.6833,-2.6844,-2.6863,-2.6866,-2.6849,-2.6883,-2.6889,-2.6922,-2.6938,-2.6911,-2.6914,-2.7011,-2.7013,-2.7014,-2.7024,0,0,0,0,0,0,-2.6744,-2.6753,-2.6766,-2.679,-2.6799,-2.6845,-2.6832,-2.6835,-2.6849,-2.6848,-2.6872,-2.6875,-2.6882,-2.6918,-2.6925,-2.6941,-2.6916,-2.701,-2.7012,-2.7014,-2.7022,-2.7025,-2.7028,0,0,0,0,0,-2.6741,-2.6767,-2.6767,-2.6775,-2.6816,-2.6846,-2.6852,-2.6859,-2.685,-2.6864,-2.6876,-2.6874,-2.6936,-2.6922,-2.6929,-2.6946,-2.7009,-2.7011,-2.7014,-2.702,-2.7025,-2.7028,0,0,0,0,0,0,-2.6745,-2.677,-2.677,-2.6805,-2.6824,-2.6846,-2.6863,-2.6863,-2.6885,-2.6883,-2.6892,-2.6898,-2.6931,-2.6943,-2.6926,-2.6983,-2.6971,-2.6975,-2.6974,-2.6978,-2.6981,-2.6976,-2.6918,0,0,0,0,0,-2.6751,-2.6773,-2.6794,-2.6823,-2.6832,-2.6846,-2.686,-2.6864,-2.6884,-2.6892,-2.6907,-2.6926,-2.695,-2.6965,-2.6988,-2.7025,-2.703,-2.7041,-2.7044,-2.7047,-2.7049,-2.7069,-2.7074,-2.7023,-2.7023,-2.7023,0,0,-2.6761,-2.6778,-2.6791,-2.6824,-2.6839,-2.6862,-2.6853,-2.6877,-2.6895,-2.6896,-2.6927,-2.6939,-2.6962,-2.6997,-2.7013,-2.7008,-2.7065,-2.705,-2.7052,-2.7053,-2.7072,-2.7077,-2.7081,-2.7025,-2.7024,-2.7024,0,0,-2.6792,-2.6807,-2.6832,-2.6847,-2.687,-2.688,-2.6886,-2.6909,-2.6917,-2.6949,-2.695,-2.6972,-2.7013,-2.7028,-2.7042,-2.7081,-2.708,-2.7089,-2.7104,-2.7124,-2.7128,-2.7131,-2.7144,-2.7149,-2.7092,-2.7092,-2.7092,0,-2.6802,-2.6836,-2.6845,-2.687,-2.6884,-2.6887,-2.6913,-2.6927,-2.6957,-2.6967,-2.6961,-2.7012,-2.7028,-2.7066,-2.7076,-2.7087,-2.7095,-2.7084,-2.7126,-2.713,-2.7134,-2.7146,-2.7151,-2.7092,-2.7092,-2.7092,-2.7092,0,-2.6847,-2.6871,-2.6889,-2.6916,-2.6933,-2.6959,-2.6972,-2.6988,-2.6992,-2.7003,-2.7036,-2.7056,-2.7082,-2.7093,-2.7097,-2.7132,-2.7128,-2.7124,-2.7112,-2.7139,-2.715,-2.7155,-2.7094,-2.7093,-2.7093,-2.7093,0,0,-2.6878,-2.6912,-2.6918,-2.6931,-2.6957,-2.6976,-2.7003,-2.7029,-2.7042,-2.7064,-2.7085,-2.7121,-2.7118,-2.7133,-2.714,-2.7157,-2.7186,-2.7151,-2.7152,-2.7155,-2.7226,-2.7226,-2.7232,-2.7187,-2.7188,-2.7188,-2.7223,0,-2.691,-2.6955,-2.6965,-2.7004,-2.7026,-2.703,-2.7053,-2.7072,-2.7084,-2.7105,-2.7118,-2.7143,-2.7137,-2.7147,-2.7165,-2.7178,-2.72,-2.7177,-2.7206,-2.7207,-2.7198,-2.7238,-2.7239,-2.727,-2.7228,-2.7229,-2.7229,0,-2.6952,-2.6974,-2.7015,-2.7039,-2.7048,-2.7068,-2.7093,-2.7114,-2.7136,-2.7144,-2.7162,-2.7167,-2.7195,-2.7184,-2.7223,-2.7207,-2.7221,-2.723,-2.7231,-2.7232,-2.7218,-2.7238,-2.7281,-2.7285,-2.7237,-2.7236,-2.7236,0,-2.6969,-2.7009,-2.7038,-2.7049,-2.7078,-2.7092,-2.7105,-2.7127,-2.7142,-2.7165,-2.7175,-2.7201,-2.7215,-2.7236,-2.7248,-2.7239,-2.7286,-2.7276,-2.7292,-2.7292,-2.7299,-2.7298,-2.7343,-2.7312,-2.7312,-2.7312,-2.7312,0,-2.7001,-2.7026,-2.7046,-2.7064,-2.7092,-2.7104,-2.7132,-2.7145,-2.7165,-2.7186,-2.7193,-2.7212,-2.7229,-2.7251,-2.7262,-2.7292,-2.7299,-2.7305,-2.7307,-2.7303,-2.7302,-2.731,-2.7307,-2.7314,-2.7313,-2.7313,-2.7313,0,-2.7023,-2.7038,-2.707,-2.7096,-2.7103,-2.7122,-2.7144,-2.7162,-2.7175,-2.7202,-2.7209,-2.7229,-2.7256,-2.7271,-2.7305,-2.7312,-2.7346,-2.7348,-2.7337,-2.7338,-2.7353,-2.7351,-2.7402,-2.7409,-2.7376,-2.7376,-2.7377,0,-2.7042,-2.7061,-2.7089,-2.7103,-2.7116,-2.7139,-2.7155,-2.7169,-2.7185,-2.7213,-2.7228,-2.7255,-2.7278,-2.7321,-2.7339,-2.7365,-2.7367,-2.7383,-2.7371,-2.7366,-2.7365,-2.7363,-2.7365,-2.7384,-2.7385,-2.7385,-2.7385,0,-2.7073,-2.708,-2.7102,-2.7127,-2.7145,-2.7166,-2.7186,-2.7198,-2.7215,-2.7234,-2.7261,-2.7279,-2.7314,-2.7341,-2.7369,-2.7384,-2.7387,-2.739,-2.7395,-2.7389,-2.7382,-2.7384,-2.7341,-2.7388,-2.7387,-2.7387,-2.7387,-2.7387,-2.7093,-2.711,-2.7132,-2.7156,-2.7173,-2.7193,-2.7211,-2.7226,-2.7249,-2.7278,-2.7285,-2.7314,-2.7338,-2.7376,-2.7392,-2.7415,-2.7412,-2.7419,-2.7421,-2.7422,-2.7422,-2.738,-2.7421,-2.7421,-2.7421,-2.742,-2.742,0,-2.7123,-2.7137,-2.716,-2.7188,-2.7208,-2.7211,-2.7234,-2.725,-2.7275,-2.7296,-2.7319,-2.7351,-2.7377,-2.7398,-2.7426,-2.7441,-2.7443,-2.7448,-2.7445,-2.7449,-2.7423,-2.7415,-2.7445,-2.7445,-2.7445,-2.7445,-2.7445,-2.7445,-2.714,-2.7169,-2.7178,-2.7216,-2.7231,-2.7258,-2.7271,-2.7289,-2.7306,-2.7341,-2.7364,-2.7377,-2.7399,-2.7429,-2.7454,-2.7459,-2.7469,-2.7472,-2.7478,-2.7453,-2.745,-2.7448,-2.744,-2.7475,-2.7475,-2.7501,-2.7501,-2.7501]},{"header":{"parameterUnit":"m.s-1","parameterCategory":1,"la1":30.2991,"la2":30.254,"lo1":-89.0895,"lo2":-89.0444,"dy":0.0017,"dx":0.0017,"nx":28,"ny":28,"refTime":"2024-02-10T03:00:00:Z","depth":0,"parameterNumber":3,"parameterNumberName":"V-component_of_WINDS"},"data":[0,0,0,0,0,0,0,0,0,0,0,0,0,0,0,0,0,0,0,0,0,0,0,0,0,0,0,0,0,0,0,0,0,0,0,0,0,0,0,0,0,0,0,0,0,0,0,0,0,0,0,0,0,0,0,0,0,0,2.7155,2.7155,0,2.7211,2.7212,2.7212,2.7225,2.7225,2.7224,2.7224,2.7276,2.7278,2.728,0,0,0,0,0,0,0,0,0,0,0,0,0,2.7052,2.7054,2.7154,2.7155,2.7156,2.7211,2.7212,2.7213,2.7225,2.7225,2.7224,2.7224,2.7276,2.7278,2.728,0,0,0,0,0,0,0,0,0,0,0,0,0,2.7101,2.7054,2.7154,2.7169,2.7171,2.7211,2.7212,2.7213,2.7225,2.7225,2.7224,2.7223,2.7275,2.7278,2.728,2.7308,0,0,2.7288,2.7289,0,0,0,0,0,0,0,0,2.7098,2.7105,2.7166,2.7168,2.717,2.7211,2.7195,2.7245,2.7225,2.7204,2.7224,2.7223,2.7255,2.7259,2.7271,2.7311,2.7313,2.7289,2.729,2.7291,2.7292,0,0,0,0,0,0,0,2.7095,2.7102,2.7177,2.7167,2.7169,2.7171,2.7177,2.7204,2.7232,2.7206,2.7207,2.7214,2.7256,2.7268,2.7272,2.7314,2.7288,2.7291,2.7292,2.7293,2.7379,2.7379,0,0,0,0,0,0,2.709,2.71,2.7175,2.7178,2.7132,2.7173,2.718,2.7198,2.7232,2.7236,2.7214,2.7214,2.7264,2.7269,2.7274,2.7309,2.7291,2.7294,2.7295,2.7378,2.7379,2.738,0,0,0,0,0,0,2.7087,2.7096,2.7173,2.7139,2.7149,2.7176,2.7195,2.7199,2.7212,2.7238,2.7242,2.7223,2.7264,2.727,2.73,2.731,2.7295,2.7297,2.7377,2.7378,2.7379,2.7378,0,0,0,0,0,0,2.7084,2.7095,2.7108,2.714,2.7151,2.7199,2.7196,2.7201,2.7217,2.7218,2.7247,2.7251,2.7264,2.7296,2.7302,2.7314,2.7299,2.7376,2.7378,2.7379,2.7377,2.7379,2.738,0,0,0,0,0,2.7081,2.7104,2.7108,2.7117,2.7167,2.72,2.7206,2.7222,2.7218,2.723,2.7246,2.725,2.7308,2.7299,2.7306,2.7319,2.7376,2.7377,2.7379,2.7377,2.7379,2.738,0,0,0,0,0,0,2.707,2.7108,2.7113,2.7148,2.7171,2.7202,2.7217,2.7224,2.7247,2.7246,2.7263,2.7269,2.7297,2.7311,2.73,2.7347,2.7342,2.7345,2.7337,2.734,2.7341,2.7337,2.7302,0,0,0,0,0,2.7072,2.7098,2.7129,2.7156,2.7168,2.719,2.7205,2.7216,2.7239,2.7248,2.7267,2.7288,2.7311,2.7326,2.7349,2.7379,2.7385,2.7391,2.7393,2.7394,2.7396,2.7413,2.7416,2.7385,2.7385,2.7385,0,0,2.7076,2.71,2.7115,2.7155,2.7174,2.7198,2.7198,2.7224,2.7242,2.7252,2.7281,2.7296,2.732,2.7351,2.7365,2.7363,2.7406,2.7396,2.7397,2.7399,2.7415,2.7418,2.742,2.7386,2.7386,2.7385,0,0,2.7096,2.7117,2.7142,2.7161,2.7191,2.7206,2.7212,2.7242,2.7253,2.7283,2.7291,2.7311,2.7351,2.7369,2.7382,2.7409,2.7413,2.7415,2.7423,2.7439,2.7442,2.7444,2.7453,2.7456,2.7418,2.7418,2.7418,0,2.7096,2.7135,2.7153,2.7179,2.7196,2.7208,2.7233,2.725,2.7284,2.7295,2.7292,2.7343,2.736,2.7394,2.7401,2.7412,2.7418,2.7412,2.744,2.7443,2.7445,2.7454,2.7457,2.7418,2.7418,2.7418,2.7418,0,2.7134,2.7161,2.7177,2.7212,2.7231,2.7256,2.7276,2.7293,2.7301,2.7316,2.7346,2.7368,2.7395,2.7404,2.7412,2.7439,2.7437,2.7437,2.7432,2.7448,2.7456,2.746,2.7418,2.7418,2.7418,2.7418,0,0,2.7148,2.7194,2.72,2.7216,2.7249,2.7269,2.7294,2.7322,2.7336,2.7359,2.7379,2.7413,2.7413,2.7429,2.7439,2.7453,2.7472,2.7452,2.7452,2.7454,2.7503,2.7502,2.7506,2.7475,2.7476,2.7476,2.7501,0,2.7171,2.7219,2.7236,2.7274,2.7298,2.731,2.7331,2.7353,2.7368,2.7389,2.7404,2.7427,2.7427,2.7436,2.7451,2.7467,2.7482,2.7465,2.7493,2.7494,2.7486,2.751,2.751,2.7532,2.7504,2.7505,2.7505,0,2.7205,2.7231,2.7272,2.7303,2.7313,2.7333,2.736,2.7381,2.7405,2.7414,2.7432,2.7441,2.7466,2.746,2.7494,2.7482,2.7494,2.7503,2.7505,2.7507,2.75,2.7513,2.7539,2.7542,2.751,2.751,2.7509,0,2.7211,2.7256,2.7286,2.7299,2.7336,2.7349,2.7364,2.7389,2.7405,2.7428,2.7438,2.7463,2.7477,2.7495,2.751,2.7504,2.7542,2.7537,2.7549,2.7549,2.7557,2.7556,2.7584,2.7565,2.7565,2.7565,2.7565,0,2.7235,2.726,2.729,2.7308,2.7335,2.7354,2.738,2.7396,2.7417,2.7438,2.7448,2.7467,2.7486,2.7507,2.7518,2.7544,2.755,2.7557,2.756,2.7556,2.7555,2.7564,2.7563,2.7566,2.7566,2.7565,2.7565,0,2.7247,2.7268,2.7302,2.7334,2.7342,2.7361,2.7387,2.7405,2.742,2.7446,2.7453,2.7476,2.7501,2.7518,2.7549,2.7557,2.7584,2.7587,2.7577,2.7578,2.7589,2.7588,2.7624,2.763,2.7607,2.7607,2.7607,0,2.7261,2.728,2.7315,2.7331,2.7347,2.7371,2.7388,2.7407,2.7423,2.7453,2.7466,2.7493,2.7514,2.7553,2.7571,2.7595,2.7598,2.7609,2.7602,2.7597,2.7598,2.7597,2.7598,2.761,2.761,2.7611,2.7611,0,2.7283,2.7293,2.7318,2.7347,2.7367,2.739,2.7412,2.7424,2.7446,2.7464,2.7491,2.7508,2.7541,2.7566,2.7592,2.7605,2.7611,2.7613,2.7617,2.7613,2.7607,2.761,2.758,2.7612,2.7612,2.7612,2.7612,2.7612,2.7296,2.7314,2.7342,2.7369,2.7388,2.7409,2.7428,2.7446,2.7469,2.7498,2.7507,2.7535,2.7558,2.7593,2.7607,2.7628,2.7627,2.7633,2.7634,2.7635,2.7635,2.7604,2.7632,2.7632,2.7632,2.7632,2.7632,0,2.7319,2.7338,2.7363,2.7395,2.7416,2.7422,2.7447,2.7464,2.7489,2.7511,2.7532,2.7562,2.7587,2.7608,2.7632,2.7645,2.7648,2.7651,2.765,2.7653,2.7635,2.7629,2.7648,2.7648,2.7648,2.7648,2.7648,2.7648,2.7334,2.7364,2.7377,2.7416,2.7434,2.7463,2.7477,2.7496,2.7513,2.7547,2.7568,2.7582,2.7603,2.763,2.7652,2.7657,2.7665,2.7667,2.7673,2.7656,2.7654,2.7652,2.7647,2.7669,2.7669,2.7689,2.769,2.769]}]]